Location: Unspecified
(0.0000°N, 0.0000°E)
Time: 09:35:09
(UTC+01:00)

Iridium 47 - Visible Passes

Search period start: 31 January 2015 00:00
Search period end: 10 February 2015 00:00
Orbit: 776 x 779 km, 86.4° (Epoch: 30 January)

Date Brightness Start Highest point End Pass type
(mag) Time Alt. Az. Time Alt. Az. Time Alt. Az.
31 Jan 7.1 21:02:58 15° SSE 21:02:58 15° SSE 21:03:51 10° SSE visible
01 Feb 7.1 20:28:43 11° SE 20:28:43 11° SE 20:28:57 10° SE visible
01 Feb 7.6 22:09:08 15° SW 22:09:08 15° SW 22:10:18 10° SW visible
02 Feb 6.4 21:34:46 32° SSW 21:34:46 32° SSW 21:37:40 10° SSW visible
03 Feb 5.4 21:00:14 49° SE 21:00:14 49° SE 21:04:15 10° S visible
04 Feb 5.8 20:25:28 28° E 20:25:33 28° E 20:30:02 10° SSE visible
04 Feb 7.5 22:05:51 16° W 22:06:12 16° W 22:09:11 10° SW visible
05 Feb 6.7 19:50:20 10° ENE 19:51:57 12° E 19:54:15 10° ESE visible
05 Feb 6.4 21:30:39 27° NW 21:32:37 35° W 21:37:19 10° SSW visible
06 Feb 5.0 20:54:34 14° N 20:59:07 80° W 21:04:21 10° S visible
07 Feb 5.3 20:20:43 10° NNE 20:25:38 45° E 20:30:38 10° SSE visible
08 Feb 6.2 19:48:25 10° NE 19:52:05 20° E 19:56:00 10° SE visible
08 Feb 7.3 21:28:40 10° NW 21:32:43 22° W 21:36:36 10° SW visible
09 Feb 5.9 20:54:09 10° NNW 20:59:10 49° W 21:04:11 10° SSW visible
